Home > Weather > Hürth > Past weeks

Flag for Germany Past Weather in Hürth, North Rhine-Westphalia, Germany — Yesterday and Last 2 Weeks

Now
72 °F

Mild.


Feels Like: 77 °F
Forecast: 56 / 71 °F
Wind: 3 mph from North

Location: Noervenich

Current Time: May 26, 2016 at 6:35:50 PM

Latest Report: May 26, 2016 at 5:20 PM


Visibility: 4 mi

Pressure: 29.98 "Hg

Humidity: 47%

Dew Point: 50 °F

Location of HürthLocation

Past Weather in Hürth — Graph

°F

Hürth Temperature Yesterday

Maximum temperature yesterday: 61 °F (at 5:20 PM)
Minimum temperature yesterday: 48 °F (at 3:20 AM)
Average temperature yesterday: 54 °F

High & Low Weather Summary for the Past Weeks

 TemperatureHumidityPressure
High75 °F (May 11, 5:20 PM)100% (May 26, 5:20 AM)30.15 "Hg (May 26, 5:20 AM)
Low41 °F (May 15, 2:20 AM)31% (May 13, 6:20 PM)29.47 "Hg (May 12, 4:20 PM)
Average57 °F68%29.90 "Hg
* Reported May 11 5:20 PM — May 26 5:20 PM, Hürth, Weather by CustomWeather, © 2016

Note: Actual official high and low records may vary slightly from our data, if they occured in-between our weather recording intervals... More about our weather records

Advertising

Hürth Weather History for the Previous 24 Hours

Scroll right to see more
 ConditionsComfort  
Time TempWeatherWind HumidityBarometerVisibility
5:20 PM
Thu, May 26
72 °FMild.3 mph47%29.98 "Hg4 mi
4:20 PM72 °FMild.1 mph47%29.98 "Hg4 mi
3:20 PM70 °FMild.3 mph50%30.01 "Hg4 mi
2:20 PM70 °FMild.3 mph50%30.01 "Hg4 mi
1:20 PM68 °FMild.2 mph56%30.01 "Hg4 mi
12:20 PM66 °FMild.3 mph56%30.01 "Hg4 mi
11:20 AM64 °FMild.3 mph60%30.01 "Hg5 mi
10:20 AM63 °FMild.2 mph68%30.04 "Hg4 mi
9:20 AM59 °FCool.2 mph72%30.04 "Hg4 mi
8:20 AM55 °FCool.1 mph82%30.01 "Hg4 mi
7:20 AM50 °FCool.2 mph94%30.01 "Hg4 mi
6:20 AM48 °FCool.1 mph94%30.01 "Hg3 mi
5:20 AM46 °FCool.No wind100%30.01 "Hg3 mi
4:20 AM48 °FCool.No wind94%30.01 "Hg3 mi
3:20 AM50 °FCool.2 mph94%30.01 "Hg3 mi
2:20 AM52 °FCool.No wind94%30.01 "Hg3 mi
1:20 AM54 °FCool.No wind88%30.01 "Hg4 mi
12:20 AM54 °FCool.1 mph88%30.01 "Hg5 mi
11:20 PM
Wed, May 25
54 °FCool.No wind88%30.01 "Hg5 mi
10:20 PM54 °FCool.No wind88%30.01 "Hg5 mi
9:20 PM57 °FCool.No wind82%29.98 "Hg5 mi
8:20 PM59 °FCool.1 mph68%29.98 "Hg6 mi
7:20 PM61 °FPartly sunny.No wind59%29.98 "HgN/A
6:20 PM59 °FPartly sunny.1 mph68%29.98 "HgN/A
Weather by CustomWeather, © 2016

See weather overviewHow to use our weather pages